NOAA 16 DEB, 41052

Orbit data source: Space-Track

NOAA 16 DEB, 41052 is space debris in SSO originally from a launch on Thu, 21 Sep 2000 UTC launched from the Air Force Western Test Range (AFWTR). Debris objects in space refer to the collection of defunct objects orbiting the Earth. Examples of debris include non-operational satellites, rocket bodies, and fragments generated from explosions, collisions, or faulty payload assembly.

Loading next visibility...
Identifier
41052, 2000-055K
Orbit
SSO
Country
Flag of USUS
Related business
Manufacturer
Unknown
Mission
Spacecraft
Bus & Motor
Unknown
Mass
Unknown
Launch date (UTC)
2000-09-21 (25 years ago)
Launch vehicle
Unknown
Launch site
Air Force Western Test Range (AFWTR)
Object type
Payload
Rocket body
Debris
Shape & HBR
Unknown shape, 0.1 m
Radar Cross Section
Small (<0.1 m²)

Expand to show TLE details & history
Last TLE update: 6 hours ago

TLE from 6 hours ago
0 NOAA 16 DEB
1 41052U 00055K   26038.26094239  .00001047  00000-0  56145-3 0  9992
2 41052  98.6088  55.3931 0162863 198.3472 161.1781 14.08521546523415
Epoch: 2026-02-07T06:15Z
TLE epoch observation values (Epoch: 2026-02-07T06:15:45.422Z)
Latitude
-0.00003°
Longitude
-175.93316°
Altitude
979.202 km
Speed
7.305 km/s
True Right ascension
03h 41m 34s
True Declination
0° 00' 00"
Sunlit
Object was in daylight at epoch
Visualization orbit readout
Latitude
Unknown
Longitude
Unknown
Altitude
Unknown
Speed
Unknown
Apparent Right ascension
Unknown
Apparent Declination
Unknown
Sunlit
N/A
Visualization observer readout
Local Sidereal Time
14:05:20
Azimuth
Unknown
Elevation
Unknown
Doppler factor
Unknown
Orbital elements
Apogee altitude
979.512 km
Perigee altitude
743.695 km
Semi-major axis
7,239.74 km
Eccentricity
0.01629
Inclination
98.6088°
RAAN
55.3931°
Arg. of periapsis
198.3472°
True anomaly
161.76881°
Mean anomaly
161.1781°
Eccentric anomaly
161.47458°
Mean motion
3.52337 °/min
Orbital period
102.17 mins
BSTAR
0.00056145
Loading maneuver chart data...
Computing Atmospheric mass density...
Loading historical data...
Loading historical data...
Loading historical data...
Loading historical data...
Loading historical data...
Loading historical data...
Loading historical data...

Documentation

Showing up to 5 results
|